Weather History for CWZL - February, 2013

Change the Weather History Date:

Thursday, February 28, 2013

  Actual Average Record
Temperature  
Mean Temperature 44 °F -  
Max Temperature 46 °F - - ()
Min Temperature 41 °F - - ()
Degree Days  
Heating Degree Days 22    
Moisture  
Dew Point 39 °F    
Average Humidity 83    
Maximum Humidity 96    
Minimum Humidity 59    
Precipitation  
Precipitation 0.00 in - - ()
Sea Level Pressure  
Sea Level Pressure 29.78 in    
Wind  
Wind Speed 24 mph ()    
Max Wind Speed 51 mph    
Max Gust Speed -    
T = Trace of Precipitation, MM = Missing Value Source: Averaged Metar Reports

Daily Weather History Graph

Daily Weather History Graph

Search for Another Location

Airport or City:

Trip Planner

Search our weather history database for the weather conditions in past years. The results will help you decide how hot, cold, wet, or windy it might be!

Date:

Astronomy

Feb. 28, 2013 Rise Set
Actual Time 7:34 AM PST 6:23 PM PST
Civil Twilight 7:00 AM PST 6:58 PM PST
Nautical Twilight 6:20 AM PST 7:38 PM PST
Astronomical Twilight 5:40 AM PST 8:18 PM PST
Moon 10:36 PM PST (2/28) 8:16 AM PST (2/28)
Length of Visible Light 11h 58m
Length of Day
10h 49m
Waning Gibbous, 90% of the Moon is Illuminated
Feb 28
Waning Gibbous
Mar 4
Last Quarter
Mar 11
New
Mar 19
First Quarter
Mar 27
Full

Hourly Weather History & Observations

Time (PST) Temp. Windchill Dew Point Humidity Pressure Visibility Wind Dir Wind Speed Gust Speed Precip Events Conditions
12:00 AM 44.8 °F 37.1 °F 38.1 °F 77% 29.94 in - South 18.4 mph - N/A   Unknown
3:00 AM 45.0 °F 34.6 °F 42.8 °F 92% 29.86 in - SSE 34.5 mph - N/A   Unknown
4:00 AM 44 °F - 42 °F 90% 29.80 in - SSE 42.6 mph - -  
4:00 AM 44.1 °F 32.3 °F 42.1 °F 93% 29.80 in - SSE 42.6 mph - N/A   Unknown
5:00 AM 44.1 °F 32.2 °F 42.3 °F 93% 29.74 in - SSE 43.7 mph - N/A   Unknown
6:00 AM 42.6 °F 30.4 °F 39.7 °F 90% 29.71 in - SSE 41.4 mph - N/A   Unknown
7:00 AM 41.9 °F 29.0 °F 39.6 °F 91% 29.65 in - SSE 44.9 mph - N/A   Unknown
8:00 AM 42.1 °F 28.9 °F 39.9 °F 92% 29.58 in - SSE 48.3 mph - N/A   Unknown
9:00 AM 42.4 °F 29.1 °F 41.2 °F 95% 29.55 in - SSE 50.6 mph - N/A   Unknown
10:00 AM 44 °F - 43 °F 95%  in - SSE 41.4 mph - -  
10:00 AM 44.1 °F 32.4 °F 43.0 °F 96% 29.53 in - SSE 41.4 mph - N/A   Unknown
11:00 AM 45.5 °F 37.1 °F 43.9 °F 94% 29.55 in - South 23.0 mph - N/A   Unknown
12:00 PM 44.6 °F 40.2 °F 41.9 °F 90% 29.63 in - WNW 8.1 mph - N/A   Unknown
1:00 PM 44.8 °F 41.0 °F 40.5 °F 85% 29.68 in - WNW 6.9 mph - N/A   Unknown
2:00 PM 46.0 °F 41.0 °F 39.9 °F 79% 29.71 in - WNW 10.4 mph - N/A   Unknown
3:00 PM 45.5 °F 38.9 °F 36.1 °F 70% 29.76 in - WNW 15.0 mph - N/A   Unknown
4:00 PM 45 °F - 35 °F 59% 29.81 in - WNW 8.1 mph - -  
4:00 PM 45.3 °F 41.1 °F 35.4 °F 68% 29.81 in - WNW 8.1 mph - N/A   Unknown
5:00 PM 44.8 °F 41.0 °F 36.3 °F 72% 29.86 in - West 6.9 mph - N/A   Unknown
6:00 PM 44.1 °F 37.1 °F 35.4 °F 72% 29.88 in - SW 15.0 mph - N/A   Unknown
7:00 PM 43.2 °F 40.5 °F 35.4 °F 74% 29.91 in - WNW 4.6 mph - N/A   Unknown
8:00 PM 41.5 °F 38.6 °F 35.6 °F 79% 29.93 in - West 4.6 mph - N/A   Unknown
9:00 PM 41.2 °F - 35.2 °F 79% 29.96 in - West 2.3 mph - N/A   Unknown
10:00 PM 41 °F - 36 °F 75% 29.98 in - WSW 8.1 mph - -  
11:00 PM 42.1 °F 37.1 °F 35.4 °F 77% 30.00 in - SSW 8.1 mph - N/A   Unknown